This is the latest recevied weather packets stored in our database for station/object SA3PJN-WX. If no packets are shown the sender has not sent any weather packets the latest 10 day(s).
| Time | Temp. | Humidity | Pressure | Rain* | Wind** | Luminosity | Snow |
|---|---|---|---|---|---|---|---|
| 1778156621 | 8.33° C | 42% | 972 hPa | - | - | - | - |
| 1778156321 | 8.89° C | 41% | 972 hPa | - | - | - | - |
| 1778155991 | 9.44° C | 41% | 972 hPa | - | - | - | - |
| 1778155690 | 9.44° C | 41% | 972 hPa | - | - | - | - |
| 1778155361 | 10° C | 40% | 972 hPa | - | - | - | - |
| 1778155060 | 9.44° C | 40% | 972 hPa | - | - | - | - |
| 1778154760 | 9.44° C | 41% | 972 hPa | - | - | - | - |
| 1778154460 | 8.33° C | 41% | 972 hPa | - | - | - | - |
| 1778154160 | 8.89° C | 44% | 972 hPa | - | - | - | - |
| 1778153860 | 8.89° C | 43% | 972 hPa | - | - | - | - |
| 1778153560 | 8.89° C | 45% | 972 hPa | - | - | - | - |
| 1778153260 | 8.89° C | 44% | 972 hPa | - | - | - | - |
| 1778152960 | 8.33° C | 46% | 972 hPa | - | - | - | - |
| 1778152660 | 8.33° C | 46% | 971.6 hPa | - | - | - | - |
| 1778152330 | 8.89° C | 45% | 971.6 hPa | - | - | - | - |
| 1778152030 | 8.33° C | 45% | 971.6 hPa | - | - | - | - |
| 1778151700 | 7.78° C | 48% | 971.6 hPa | - | - | - | - |
| 1778151400 | 7.22° C | 49% | 971.6 hPa | - | - | - | - |
| 1778151100 | 7.78° C | 47% | 971.6 hPa | - | - | - | - |
| 1778150800 | 8.33° C | 48% | 971.5 hPa | - | - | - | - |
| 1778150500 | 9.44° C | 45% | 971.5 hPa | - | - | - | - |
| 1778150170 | 10° C | 43% | 971.5 hPa | - | - | - | - |
| 1778149840 | 10° C | 42% | 971.4 hPa | - | - | - | - |
| 1778149510 | 11.67° C | 42% | 971.4 hPa | - | - | - | - |
| 1778149180 | 11.67° C | 43% | 971.4 hPa | - | - | - | - |
* Rain since midnight (hover to see other rain measurements)
** Current wind speed in m/s (hover to see current wind gust speed)